[[{"header":{"parameterUnit":"m.s-1","parameterCategory":1,"la1":30.2991,"la2":30.254,"lo1":-89.0895,"lo2":-89.0444,"dy":0.0017,"dx":0.0017,"nx":28,"ny":28,"refTime":"2024-07-08T03:00:00:Z","depth":0,"parameterNumber":2,"parameterNumberName":"U-component_of_WINDS"},"data":[0,0,0,0,0,0,0,0,0,0,0,0,0,0,0,0,0,0,0,0,0,0,0,0,0,0,0,0,0,0,0,0,0,0,0,0,0,0,0,0,0,0,0,0,0,0,0,0,0,0,0,0,0,0,0,0,0,0,-0.2933,-0.2934,0,-0.3025,-0.3026,-0.3027,-0.3106,-0.3107,-0.3108,-0.3109,-0.3201,-0.3203,-0.3205,0,0,0,0,0,0,0,0,0,0,0,0,0,-0.2828,-0.283,-0.2933,-0.2934,-0.2935,-0.3024,-0.3026,-0.3027,-0.3106,-0.3107,-0.3108,-0.3109,-0.3201,-0.3203,-0.3205,0,0,0,0,0,0,0,0,0,0,0,0,0,-0.2892,-0.283,-0.2933,-0.2986,-0.2991,-0.3024,-0.3026,-0.3027,-0.3106,-0.3107,-0.3108,-0.311,-0.32,-0.3203,-0.3205,-0.3193,0,0,-0.3212,-0.3214,0,0,0,0,0,0,0,0,-0.2888,-0.2896,-0.2977,-0.2982,-0.2988,-0.3055,-0.3023,-0.3083,-0.3105,-0.3062,-0.3109,-0.311,-0.3152,-0.3158,-0.3172,-0.3197,-0.3201,-0.3213,-0.3214,-0.3215,-0.3216,0,0,0,0,0,0,0,-0.2884,-0.2892,-0.2969,-0.2978,-0.2985,-0.3005,-0.3015,-0.3034,-0.3098,-0.3066,-0.3072,-0.3082,-0.3155,-0.317,-0.3175,-0.3203,-0.3213,-0.3215,-0.3216,-0.3217,-0.3223,-0.3222,0,0,0,0,0,0,-0.2871,-0.2888,-0.2966,-0.2972,-0.2941,-0.3006,-0.3018,-0.3032,-0.3098,-0.311,-0.3081,-0.3085,-0.3165,-0.3172,-0.3179,-0.317,-0.3215,-0.3217,-0.3219,-0.3225,-0.3223,-0.3222,0,0,0,0,0,0,-0.2868,-0.2877,-0.2963,-0.2932,-0.2944,-0.3006,-0.3022,-0.3034,-0.3048,-0.3109,-0.3121,-0.3084,-0.3166,-0.3175,-0.3189,-0.3174,-0.3219,-0.3221,-0.3226,-0.3224,-0.3222,-0.315,0,0,0,0,0,0,-0.2865,-0.2876,-0.2872,-0.2931,-0.2945,-0.2971,-0.3021,-0.3034,-0.3052,-0.3059,-0.3115,-0.3126,-0.3168,-0.3185,-0.3191,-0.3178,-0.3223,-0.3228,-0.3225,-0.3223,-0.3154,-0.3146,-0.3139,0,0,0,0,0,-0.2861,-0.2847,-0.2871,-0.288,-0.2941,-0.297,-0.2979,-0.3028,-0.3051,-0.3047,-0.3087,-0.3124,-0.3174,-0.3186,-0.3194,-0.3181,-0.3229,-0.3226,-0.3223,-0.3158,-0.3148,-0.3139,0,0,0,0,0,0,-0.2784,-0.2856,-0.2883,-0.2888,-0.2923,-0.2984,-0.2981,-0.3015,-0.3044,-0.3049,-0.3108,-0.312,-0.3128,-0.3156,-0.3167,-0.3173,-0.3207,-0.3205,-0.3154,-0.3145,-0.3138,-0.3131,-0.3225,0,0,0,0,0,-0.2768,-0.2785,-0.2847,-0.2846,-0.2862,-0.2918,-0.2932,-0.2967,-0.3005,-0.302,-0.306,-0.3096,-0.312,-0.3134,-0.316,-0.3159,-0.3173,-0.3154,-0.3146,-0.314,-0.3138,-0.3141,-0.3133,-0.3212,-0.3212,-0.3212,0,0,-0.2734,-0.2776,-0.2783,-0.2831,-0.2862,-0.2879,-0.293,-0.2945,-0.2958,-0.3022,-0.3038,-0.3069,-0.3112,-0.3119,-0.3124,-0.3143,-0.3119,-0.3136,-0.3131,-0.3132,-0.3137,-0.3129,-0.3123,-0.321,-0.3211,-0.3211,0,0,-0.2682,-0.2715,-0.2718,-0.2748,-0.2794,-0.2832,-0.2832,-0.2888,-0.2911,-0.2928,-0.2977,-0.2994,-0.3033,-0.3063,-0.3083,-0.3042,-0.3078,-0.3049,-0.3009,-0.3011,-0.3005,-0.3,-0.2986,-0.298,-0.3047,-0.3046,-0.3046,0,-0.2634,-0.2662,-0.2715,-0.2728,-0.2748,-0.2807,-0.2811,-0.2837,-0.2889,-0.2901,-0.2922,-0.2974,-0.3007,-0.3022,-0.3012,-0.3026,-0.3029,-0.3043,-0.3001,-0.2997,-0.2993,-0.298,-0.2975,-0.3043,-0.3043,-0.3044,-0.3044,0,-0.2601,-0.262,-0.2616,-0.2665,-0.2685,-0.2693,-0.2748,-0.2762,-0.2795,-0.283,-0.2847,-0.289,-0.2925,-0.2931,-0.2964,-0.2951,-0.2961,-0.299,-0.3026,-0.298,-0.297,-0.2965,-0.3037,-0.3039,-0.304,-0.3041,0,0,-0.2503,-0.2581,-0.2579,-0.2603,-0.2658,-0.2674,-0.2685,-0.272,-0.2731,-0.2765,-0.2776,-0.2809,-0.2836,-0.2859,-0.2896,-0.2897,-0.2863,-0.2927,-0.2929,-0.2914,-0.2853,-0.283,-0.2824,-0.2887,-0.2887,-0.2886,-0.2849,0,-0.246,-0.2483,-0.2531,-0.254,-0.2557,-0.2614,-0.2624,-0.2659,-0.2693,-0.2714,-0.2751,-0.2774,-0.2808,-0.2823,-0.2827,-0.2866,-0.2852,-0.287,-0.2898,-0.2899,-0.2886,-0.2818,-0.2794,-0.2757,-0.2845,-0.2844,-0.2844,0,-0.2412,-0.2443,-0.2453,-0.2509,-0.2518,-0.2526,-0.2562,-0.2581,-0.2622,-0.2647,-0.2673,-0.2713,-0.2728,-0.276,-0.2782,-0.2793,-0.2808,-0.2829,-0.2829,-0.2834,-0.2868,-0.2821,-0.2747,-0.2741,-0.2838,-0.2838,-0.2839,0,-0.234,-0.2384,-0.2396,-0.2414,-0.2479,-0.2483,-0.2511,-0.2554,-0.2572,-0.2604,-0.2616,-0.2649,-0.2667,-0.2692,-0.274,-0.2759,-0.2757,-0.2793,-0.2778,-0.2776,-0.2775,-0.2774,-0.2702,-0.2783,-0.2784,-0.2784,-0.2784,0,-0.2287,-0.2291,-0.2365,-0.2372,-0.2378,-0.2434,-0.2439,-0.2471,-0.2509,-0.2524,-0.2575,-0.2588,-0.2651,-0.2671,-0.2709,-0.2722,-0.273,-0.275,-0.276,-0.2746,-0.2743,-0.2756,-0.276,-0.2782,-0.2783,-0.2783,-0.2783,0,-0.2207,-0.2257,-0.2274,-0.2334,-0.2349,-0.2351,-0.2403,-0.2412,-0.2449,-0.2468,-0.2475,-0.2533,-0.256,-0.261,-0.2651,-0.2677,-0.2681,-0.2698,-0.2667,-0.2673,-0.2655,-0.2656,-0.2589,-0.2583,-0.2668,-0.2667,-0.2666,0,-0.217,-0.2175,-0.2236,-0.2249,-0.2275,-0.2296,-0.2315,-0.237,-0.2388,-0.2436,-0.244,-0.2471,-0.2498,-0.2538,-0.2584,-0.2615,-0.2634,-0.2608,-0.2639,-0.2625,-0.2634,-0.2633,-0.2634,-0.2601,-0.26,-0.2599,-0.2598,0,-0.21,-0.2124,-0.215,-0.2184,-0.2205,-0.2235,-0.2267,-0.2275,-0.2338,-0.2355,-0.2384,-0.2405,-0.2447,-0.2477,-0.2515,-0.2543,-0.2581,-0.2588,-0.2587,-0.2572,-0.2554,-0.2564,-0.2648,-0.259,-0.259,-0.2591,-0.2592,-0.2592,-0.2041,-0.2048,-0.2092,-0.2119,-0.2149,-0.2178,-0.219,-0.2229,-0.2253,-0.2292,-0.2323,-0.2348,-0.2391,-0.2446,-0.2472,-0.2493,-0.2511,-0.2508,-0.2508,-0.2506,-0.2501,-0.255,-0.25,-0.2501,-0.2501,-0.2501,-0.2502,0,-0.1974,-0.2005,-0.2029,-0.2073,-0.2094,-0.2128,-0.2166,-0.2181,-0.2203,-0.2239,-0.2265,-0.2298,-0.2327,-0.2376,-0.2409,-0.2417,-0.2435,-0.2424,-0.2424,-0.243,-0.2482,-0.2481,-0.2408,-0.2408,-0.2408,-0.2408,-0.2408,-0.2408,-0.1941,-0.1955,-0.1984,-0.2014,-0.2045,-0.2071,-0.2089,-0.2117,-0.2146,-0.218,-0.2205,-0.2236,-0.2278,-0.2315,-0.2343,-0.2357,-0.2367,-0.235,-0.2369,-0.2417,-0.2426,-0.2434,-0.2433,-0.2352,-0.2352,-0.2315,-0.2314,-0.2314]},{"header":{"parameterUnit":"m.s-1","parameterCategory":1,"la1":30.2991,"la2":30.254,"lo1":-89.0895,"lo2":-89.0444,"dy":0.0017,"dx":0.0017,"nx":28,"ny":28,"refTime":"2024-07-08T03:00:00:Z","depth":0,"parameterNumber":3,"parameterNumberName":"V-component_of_WINDS"},"data":[0,0,0,0,0,0,0,0,0,0,0,0,0,0,0,0,0,0,0,0,0,0,0,0,0,0,0,0,0,0,0,0,0,0,0,0,0,0,0,0,0,0,0,0,0,0,0,0,0,0,0,0,0,0,0,0,0,0,6.6531,6.6532,0,6.6597,6.6598,6.6599,6.6503,6.65,6.6496,6.6493,6.6556,6.6561,6.6566,0,0,0,0,0,0,0,0,0,0,0,0,0,6.6314,6.6319,6.6531,6.6532,6.6532,6.6597,6.6598,6.6599,6.6504,6.65,6.6496,6.6492,6.6555,6.6561,6.6566,0,0,0,0,0,0,0,0,0,0,0,0,0,6.6397,6.632,6.6531,6.6493,6.649,6.6597,6.6598,6.6599,6.6505,6.65,6.6495,6.649,6.6553,6.656,6.6567,6.6713,0,0,6.6589,6.6592,0,0,0,0,0,0,0,0,6.6393,6.6405,6.6498,6.6496,6.6493,6.6537,6.6545,6.6637,6.6506,6.6499,6.6493,6.6487,6.6554,6.656,6.6584,6.6716,6.6718,6.659,6.6594,6.6597,6.6599,0,0,0,0,0,0,0,6.6387,6.6402,6.6557,6.6499,6.6496,6.647,6.6476,6.6562,6.6554,6.6499,6.6492,6.6502,6.6551,6.6577,6.6585,6.6719,6.659,6.6596,6.66,6.6603,6.697,6.6975,0,0,0,0,0,0,6.6387,6.6398,6.6555,6.6559,6.6429,6.6478,6.6485,6.6528,6.6552,6.6551,6.6506,6.6497,6.6567,6.6576,6.6587,6.6756,6.6597,6.6604,6.6608,6.6965,6.6971,6.6977,0,0,0,0,0,0,6.6382,6.6402,6.6552,6.6477,6.6494,6.6487,6.6536,6.6532,6.6557,6.6558,6.6555,6.6535,6.6564,6.6576,6.6682,6.6757,6.6607,6.6614,6.6958,6.6967,6.6974,6.7099,0,0,0,0,0,0,6.6377,6.6401,6.6458,6.6479,6.6498,6.6649,6.6541,6.6537,6.6571,6.656,6.6584,6.6583,6.6561,6.6671,6.6689,6.6764,6.6619,6.6952,6.6962,6.6972,6.7088,6.711,6.7129,0,0,0,0,0,6.6369,6.649,6.6461,6.6481,6.657,6.6653,6.6664,6.6638,6.6577,6.6633,6.6633,6.6582,6.6747,6.6683,6.6702,6.6781,6.6947,6.6959,6.6971,6.7079,6.7106,6.7129,0,0,0,0,0,0,6.6476,6.6492,6.646,6.6591,6.6622,6.6637,6.6707,6.6668,6.6715,6.6702,6.6666,6.6672,6.6784,6.6793,6.6722,6.6921,6.6836,6.6853,6.6912,6.6937,6.6958,6.6952,6.6625,0,0,0,0,0,6.6515,6.6584,6.6593,6.6707,6.6725,6.6713,6.6749,6.6726,6.6755,6.6767,6.6774,6.6803,6.6861,6.69,6.6953,6.7089,6.7091,6.7152,6.7173,6.719,6.7204,6.7274,6.73,6.7017,6.7017,6.7017,0,0,6.6596,6.6613,6.6658,6.6729,6.675,6.682,6.6725,6.6803,6.6853,6.6778,6.6878,6.6885,6.6914,6.7035,6.7088,6.7045,6.7283,6.7206,6.7219,6.7224,6.7289,6.7316,6.734,6.7026,6.7024,6.7023,0,0,6.6779,6.68,6.6897,6.692,6.6953,6.6944,6.6967,6.6988,6.699,6.709,6.7035,6.7093,6.7194,6.7217,6.7242,6.7431,6.7385,6.745,6.7557,6.7625,6.7648,6.7667,6.7733,6.7757,6.7464,6.7464,6.7465,0,6.6875,6.6979,6.6951,6.7032,6.7064,6.7001,6.7097,6.712,6.7168,6.719,6.7142,6.7267,6.7282,6.7406,6.7452,6.7475,6.7498,6.7446,6.7647,6.7666,6.7684,6.7746,6.7771,6.7472,6.7471,6.747,6.7469,0,6.7094,6.7167,6.7241,6.729,6.733,6.7419,6.7401,6.7445,6.7418,6.7414,6.7515,6.7531,6.7586,6.7614,6.7588,6.7733,6.7705,6.7653,6.7567,6.7719,6.7776,6.78,6.7483,6.748,6.7478,6.7476,0,0,6.7346,6.7378,6.7405,6.7426,6.7457,6.7512,6.7596,6.7651,6.7688,6.7723,6.7791,6.7877,6.7829,6.7857,6.7833,6.7894,6.804,6.7833,6.7833,6.7869,6.8198,6.8236,6.8264,6.801,6.8014,6.8018,6.8194,0,6.7526,6.7674,6.765,6.7792,6.7857,6.7798,6.787,6.7896,6.7895,6.7948,6.7945,6.8006,6.7938,6.7954,6.8012,6.801,6.8105,6.7997,6.807,6.8073,6.8063,6.8294,6.8335,6.8501,6.8217,6.8221,6.8223,0,6.7757,6.7801,6.795,6.7969,6.7996,6.8062,6.8109,6.8162,6.8189,6.8183,6.8214,6.8179,6.826,6.8174,6.8284,6.8211,6.8239,6.8243,6.8249,6.8253,6.8157,6.8303,6.8553,6.8578,6.8259,6.8256,6.8254,0,6.7923,6.802,6.8121,6.814,6.8166,6.8214,6.8226,6.8248,6.8282,6.8323,6.8343,6.8393,6.8419,6.8457,6.8435,6.8375,6.8548,6.846,6.8543,6.8544,6.8581,6.8579,6.8838,6.8603,6.8603,6.8602,6.8602,0,6.8126,6.8218,6.8195,6.8257,6.8358,6.8329,6.8429,6.8434,6.8454,6.8514,6.8466,6.8522,6.8491,6.8545,6.8528,6.862,6.8633,6.8628,6.8622,6.8632,6.8632,6.8649,6.8636,6.8609,6.8607,6.8606,6.8605,0,6.8328,6.8316,6.8422,6.8438,6.8444,6.8517,6.8529,6.8586,6.858,6.8656,6.8672,6.8663,6.8723,6.8706,6.8771,6.8759,6.8876,6.8856,6.8867,6.8862,6.8945,6.8937,6.9222,6.9257,6.9002,6.9004,6.9006,0,6.8457,6.8527,6.855,6.8588,6.8604,6.8665,6.8699,6.8672,6.871,6.8745,6.8797,6.8853,6.8897,6.8996,6.8994,6.9043,6.9023,6.9119,6.9029,6.9036,6.9021,6.9017,6.9023,6.9137,6.914,6.9142,6.9144,0,6.8687,6.8678,6.873,6.8781,6.8823,6.8861,6.8894,6.8927,6.8901,6.8945,6.9007,6.9042,6.9108,6.9164,6.9209,6.9219,6.9177,6.9172,6.9194,6.9203,6.9206,6.9204,6.8914,6.9166,6.9163,6.9162,6.9161,6.916,6.8856,6.8914,6.8939,6.8998,6.9021,6.9052,6.9106,6.9107,6.9159,6.9212,6.9192,6.9263,6.9285,6.9341,6.9357,6.941,6.9373,6.9405,6.9412,6.942,6.943,6.9199,6.9418,6.9418,6.9417,6.9417,6.9416,0,6.9081,6.9095,6.9149,6.9197,6.9243,6.9202,6.9235,6.9276,6.9339,6.9365,6.9409,6.9479,6.9533,6.9535,6.9584,6.9626,6.9608,6.964,6.9635,6.9638,6.9461,6.9437,6.9654,6.9654,6.9654,6.9653,6.9653,6.9653,6.9204,6.9301,6.9294,6.94,6.9411,6.9481,6.9504,6.9532,6.9552,6.9633,6.9678,6.9679,6.9694,6.9744,6.9791,6.979,6.9809,6.9848,6.984,6.9674,6.9651,6.9628,6.9605,6.9853,6.9854,7.0012,7.0013,7.0014]}]]